Weather History for Buffalo, WY

Change the Weather History Date:

Monday, April 22, 2013

  Actual Average Record
Temperature  
Mean Temperature 18 °F 45 °F  
Max Temperature 25 °F 56 °F 77 °F (2009)
Min Temperature 11 °F 35 °F 11 °F (2013)
Degree Days  
Heating Degree Days 47 20  
Month to date heating degree days 657 508  
Since 1 July heating degree days 6541 6698  
Cooling Degree Days 0 0  
Month to date cooling degree days 0 0  
Year to date cooling degree days 0 0  
Moisture  
Dew Point 17 °F    
Average Humidity 77    
Maximum Humidity 92    
Minimum Humidity 61    
Precipitation  
Precipitation 0.06 in 0.04 in 0.48 in (1999)
Month to date precipitation 0.66 0.74  
Year to date precipitation 1.35 2.43  
Sea Level Pressure  
Sea Level Pressure 30.29 in    
Wind  
Wind Speed 12 mph (NNW)    
Max Wind Speed 22 mph    
Max Gust Speed 28 mph    
Visibility 3 miles    
Events Fog , Snow    
T = Trace of Precipitation, MM = Missing Value Source: NWS Daily Summary

Daily Weather History Graph

Daily Weather History Graph

Search for Another Location

Airport:

Trip Planner

Search our weather history database for the weather conditions in past years. The results will help you decide how hot, cold, wet, or windy it might be!

Date:

Astronomy

Apr. 22, 2013 Rise Set
Actual Time 6:10 AM MDT 8:00 PM MDT
Civil Twilight 5:40 AM MDT 8:31 PM MDT
Nautical Twilight 5:02 AM MDT 9:09 PM MDT
Astronomical Twilight 4:21 AM MDT 9:50 PM MDT
Moon 4:46 PM MDT (4/22) 4:14 AM MDT (4/22)
Length of Visible Light 14h 51m
Length of Day
13h 49m
Waxing Gibbous, 88% of the Moon is Illuminated
Apr 22
Waxing Gibbous
Apr 25
Full
May 2
Last Quarter
May 9
New
May 17
First Quarter

Hourly Weather History & Observations

Time (MDT) Temp. Windchill Dew Point Humidity Pressure Visibility Wind Dir Wind Speed Gust Speed Precip Events Conditions
12:10 AM 24.8 °F 14.0 °F 23.0 °F 93% 30.10 in 0.5 mi NW 11.5 mph - 0.02 in Fog , Snow Snow
12:53 AM 25.0 °F 14.2 °F 23.0 °F 92% 30.19 in 0.5 mi NNW 11.5 mph - 0.05 in Fog , Snow Light Snow
1:26 AM 24.8 °F 11.9 °F 23.0 °F 93% 30.11 in 0.8 mi NNW 16.1 mph 25.3 mph 0.01 in Snow Light Snow
1:51 AM 24.8 °F 12.9 °F 21.2 °F 86% 30.11 in 1.0 mi North 13.8 mph 23.0 mph 0.02 in Snow Light Snow
1:53 AM 25.0 °F 12.6 °F 21.9 °F 88% 30.19 in 1.0 mi North 15.0 mph - 0.02 in Snow Light Snow
2:00 AM 24.8 °F 12.9 °F 21.2 °F 86% 30.11 in 1.0 mi North 13.8 mph 21.9 mph 0.00 in Snow Light Snow
2:14 AM 24.8 °F 14.0 °F 21.2 °F 86% 30.12 in 1.2 mi North 11.5 mph 21.9 mph 0.00 in Snow Light Snow
2:28 AM 24.8 °F 12.4 °F 21.2 °F 86% 30.12 in 1.0 mi North 15.0 mph 24.2 mph 0.00 in Snow Light Snow
2:53 AM 24.1 °F 12.0 °F 21.9 °F 91% 30.21 in 1.0 mi North 13.8 mph 24.2 mph 0.00 in Snow Light Snow
3:18 AM 24.8 °F 13.4 °F 21.2 °F 86% 30.13 in 0.8 mi NNW 12.7 mph - 0.00 in Snow Light Snow
3:53 AM 24.1 °F 12.0 °F 21.0 °F 88% 30.23 in 0.5 mi NNW 13.8 mph 25.3 mph 0.01 in Fog , Snow Light Snow
4:13 AM 23.0 °F 11.1 °F 21.2 °F 93% 30.15 in 1.0 mi NNW 12.7 mph - 0.01 in Snow Light Snow
4:25 AM 24.8 °F 12.9 °F 21.2 °F 86% 30.15 in 1.2 mi NW 13.8 mph 25.3 mph 0.01 in Snow Light Snow
4:40 AM 23.0 °F 9.6 °F 21.2 °F 93% 30.15 in 1.2 mi North 16.1 mph 25.3 mph 0.01 in Snow Light Snow
4:50 AM 23.0 °F 8.3 °F 19.4 °F 86% 30.16 in 1.0 mi North 19.6 mph - 0.01 in Snow Light Snow
4:53 AM 23.0 °F 9.2 °F 19.9 °F 88% 30.26 in 1.0 mi North 17.3 mph 24.2 mph 0.01 in Snow Light Snow
5:05 AM 23.0 °F 9.6 °F 21.2 °F 93% 30.16 in 0.8 mi NNW 16.1 mph 25.3 mph 0.00 in Snow Light Snow
5:23 AM 23.0 °F 10.6 °F 19.4 °F 86% 30.16 in 0.8 mi North 13.8 mph 23.0 mph 0.00 in Snow Light Snow
5:48 AM 21.2 °F 7.8 °F 19.4 °F 93% 30.17 in 0.8 mi NNW 15.0 mph 25.3 mph 0.00 in Snow Light Snow
5:53 AM 21.9 °F 8.7 °F 19.0 °F 89% 30.27 in 0.8 mi NNW 15.0 mph 25.3 mph 0.00 in Snow Light Snow
6:03 AM 21.2 °F 7.8 °F 19.4 °F 93% 30.17 in 0.8 mi NNW 15.0 mph 24.2 mph 0.00 in Snow Light Snow
6:13 AM 21.2 °F 7.3 °F 19.4 °F 93% 30.18 in 1.0 mi NNW 16.1 mph 26.5 mph 0.00 in Snow Light Snow
6:22 AM 21.2 °F 6.8 °F 19.4 °F 93% 30.18 in 1.0 mi NNW 17.3 mph 26.5 mph 0.00 in Snow Light Snow
6:31 AM 21.2 °F 7.3 °F 19.4 °F 93% 30.19 in 0.5 mi NNW 16.1 mph 26.5 mph 0.00 in Fog , Snow Light Snow
6:50 AM 21.2 °F 6.4 °F 19.4 °F 93% 30.19 in 0.5 mi NNW 18.4 mph 26.5 mph 0.01 in Fog , Snow Snow
6:53 AM 21.9 °F 7.8 °F 19.0 °F 89% 30.31 in 0.5 mi NNW 17.3 mph 26.5 mph 0.01 in Fog , Snow Snow
7:02 AM 21.2 °F 8.9 °F 19.4 °F 93% 30.20 in 0.5 mi NNW 12.7 mph 26.5 mph 0.00 in Fog , Snow Snow
7:44 AM 21.2 °F 6.0 °F 19.4 °F 93% 30.23 in 0.2 mi North 19.6 mph 26.5 mph 0.00 in Fog , Snow Heavy Snow
7:53 AM 21.0 °F 5.4 °F 18.0 °F 88% 30.36 in 0.2 mi North 20.7 mph - 0.00 in Fog , Snow Snow
8:17 AM 21.2 °F 9.5 °F 17.6 °F 86% 30.25 in 0.8 mi North 11.5 mph 21.9 mph 0.00 in Snow Light Snow
8:33 AM 19.4 °F 4.1 °F 17.6 °F 93% 30.26 in 0.2 mi North 18.4 mph 23.0 mph 0.00 in Fog , Snow Snow
8:53 AM 19.9 °F 3.9 °F 16.0 °F 85% 30.41 in 0.5 mi North 20.7 mph - 0.00 in Fog , Snow Snow
9:11 AM 19.4 °F 3.6 °F 15.8 °F 86% 30.29 in 1.0 mi North 19.6 mph - 0.00 in Snow Light Snow
9:19 AM 19.4 °F 3.6 °F 15.8 °F 86% 30.29 in 1.2 mi North 19.6 mph - 0.00 in Snow Light Snow
9:27 AM 19.4 °F 3.2 °F 15.8 °F 86% 30.29 in 1.0 mi North 20.7 mph - 0.00 in Snow Light Snow
9:46 AM 19.4 °F 5.0 °F 14.0 °F 80% 30.30 in 1.5 mi North 16.1 mph - 0.00 in Snow Light Snow
9:53 AM 19.0 °F 5.0 °F 14.0 °F 81% 30.44 in 1.8 mi North 15.0 mph - 0.01 in Snow Light Snow
10:00 AM 19.4 °F 5.5 °F 12.2 °F 74% 30.30 in 2.0 mi North 15.0 mph 21.9 mph 0.00 in Snow Light Snow
10:15 AM 19.4 °F 6.0 °F 12.2 °F 74% 30.31 in 6.0 mi North 13.8 mph 21.9 mph 0.00 in Snow Light Snow
10:28 AM 19.4 °F 5.5 °F 12.2 °F 74% 30.32 in 4.0 mi North 15.0 mph 23.0 mph 0.00 in Snow Light Snow
10:35 AM 19.4 °F 6.6 °F 12.2 °F 74% 30.32 in 1.8 mi North 12.7 mph 23.0 mph 0.00 in Snow Light Snow
10:53 AM 19.0 °F 5.0 °F 12.9 °F 77% 30.46 in 1.0 mi North 15.0 mph 23.0 mph 0.00 in Snow Light Snow
11:25 AM 19.4 °F 9.5 °F 15.8 °F 86% 30.33 in 0.5 mi NNW 8.1 mph - 0.00 in Snow Snow
11:35 AM 19.4 °F 8.6 °F 15.8 °F 86% 30.33 in 0.5 mi NW 9.2 mph - 0.00 in Snow Snow
11:49 AM 19.4 °F 7.9 °F 15.8 °F 86% 30.33 in 1.2 mi NW 10.4 mph - 0.00 in Snow Light Snow
11:53 AM 19.9 °F 9.3 °F 15.1 °F 81% 30.47 in 1.2 mi NNW 9.2 mph - 0.00 in Snow Light Snow
12:23 PM 21.2 °F 9.5 °F 15.8 °F 80% 30.32 in 1.8 mi North 11.5 mph - 0.00 in Snow Light Snow
12:32 PM 21.2 °F 9.5 °F 17.6 °F 86% 30.32 in 1.5 mi North 11.5 mph 20.7 mph 0.01 in Snow Light Snow
12:41 PM 21.2 °F 9.5 °F 15.8 °F 80% 30.32 in 1.5 mi North 11.5 mph 21.9 mph 0.01 in Snow Light Snow
12:43 PM 21.2 °F 8.3 °F 15.8 °F 80% 30.32 in 1.8 mi North 13.8 mph 21.9 mph 0.01 in Snow Light Snow
12:49 PM 21.2 °F 6.8 °F 15.8 °F 80% 30.32 in 2.0 mi North 17.3 mph 23.0 mph 0.01 in Snow Light Snow
12:53 PM 21.0 °F 6.6 °F 16.0 °F 81% 30.46 in 2.5 mi North 17.3 mph 23.0 mph 0.01 in Snow Light Snow
1:02 PM 21.2 °F 6.4 °F 15.8 °F 80% 30.32 in 5.0 mi NNW 18.4 mph 24.2 mph 0.00 in Snow Light Snow
1:09 PM 21.2 °F 6.8 °F 15.8 °F 80% 30.32 in 10.0 mi North 17.3 mph 24.2 mph 0.00 in   Overcast
1:20 PM 21.2 °F 7.3 °F 15.8 °F 80% 30.32 in 9.0 mi NNW 16.1 mph 24.2 mph 0.00 in   Overcast
1:28 PM 21.2 °F 7.3 °F 15.8 °F 80% 30.32 in 10.0 mi North 16.1 mph 24.2 mph 0.00 in   Overcast
1:53 PM 21.9 °F 8.7 °F 15.1 °F 75% 30.45 in 10.0 mi North 15.0 mph 23.0 mph 0.00 in   Overcast
2:53 PM 23.0 °F 11.7 °F 15.1 °F 72% 30.45 in 10.0 mi North 11.5 mph 21.9 mph N/A   Clear
3:53 PM 23.0 °F 11.7 °F 12.9 °F 65% 30.45 in 10.0 mi North 11.5 mph - N/A   Clear
4:53 PM 23.0 °F 13.1 °F 12.9 °F 65% 30.45 in 10.0 mi North 9.2 mph - N/A   Overcast
5:53 PM 23.0 °F 13.1 °F 12.0 °F 63% 30.45 in 10.0 mi North 9.2 mph - N/A   Mostly Cloudy
6:53 PM 21.0 °F 12.4 °F 12.0 °F 68% 30.47 in 10.0 mi North 6.9 mph - N/A   Clear
7:53 PM 16.0 °F 6.3 °F 8.1 °F 71% 30.49 in 10.0 mi West 6.9 mph - N/A   Clear
8:53 PM 14.0 °F 3.9 °F 5.0 °F 67% 30.51 in 10.0 mi WNW 6.9 mph - N/A   Clear
9:53 PM 14.0 °F 2.0 °F 3.9 °F 64% 30.52 in 10.0 mi WSW 9.2 mph - N/A   Partly Cloudy
10:53 PM 12.0 °F 4.1 °F 1.9 °F 64% 30.52 in 10.0 mi West 4.6 mph - N/A   Clear
11:53 PM 12.0 °F -0.4 °F 1.9 °F 64% 30.50 in 10.0 mi WSW 9.2 mph - N/A   Clear